Zurück zum Katalog

CZ-6A DEB

AktivPO
NORAD 60792·DEBRIS·🇨🇳 China

Gestartet Aug 6, 2024 von Taiyuan Satellite Launch Center

Loading…

Nächste Überflüge (nächste 24 Stunden)

TLE

AktuellSource: Space-Track

Epoche: Sep 14, 2026, 11:03 UTC

1 60792U 24140FT  26257.46058825  .00000938  00000-0  11453-3 0  9992
2 60792  89.0573 263.1619 0170894 227.9397 130.7179 14.72518283112197

Verfolge CZ-6A DEB in Echtzeit mit AllMySat

Download on the App Store